Location: Caprauna
(44.1200°N, 7.5700°E)
Time: 19:12:04
(UTC+02:00)

ISS - Visible Passes

Search period start: 26 May 2018 00:00
Search period end: 05 June 2018 00:00
Orbit: 402 x 407 km, 51.6° (Epoch: 26 May)

Date Brightness Start Highest point End Pass type
(mag) Time Alt. Az. Time Alt. Az. Time Alt. Az.
26 May -1.9 01:14:21 10° NW 01:17:16 30° NNE 01:17:16 30° NNE visible
26 May -1.3 22:45:00 10° WNW 22:47:42 23° N 22:50:24 10° NE visible
27 May -1.5 00:22:08 10° NW 00:24:53 24° N 00:26:26 17° NE visible
27 May -1.1 01:58:29 10° WNW 01:59:02 14° NW 01:59:02 14° NW visible
27 May -1.6 21:52:24 10° WNW 21:55:16 28° NNW 21:58:10 10° NE visible
27 May -1.3 23:29:50 10° NW 23:32:28 22° N 23:35:04 10° ENE visible
28 May -2.0 01:06:18 10° NW 01:08:19 31° NNW 01:08:19 31° NNW visible
28 May -1.3 22:37:24 10° NW 22:39:59 21° N 22:42:35 10° NE visible
29 May -2.3 00:14:07 10° NW 00:17:07 33° NNE 00:17:38 31° NE visible
29 May -1.3 21:44:51 10° WNW 21:47:31 22° N 21:50:10 10° NE visible
29 May -1.8 23:21:53 10° NW 23:24:43 26° NNE 23:27:00 13° ENE visible
30 May -1.8 00:58:13 10° WNW 00:59:38 23° WNW 00:59:38 23° WNW visible
30 May -1.5 22:29:34 10° NW 22:32:14 22° N 22:34:54 10° ENE visible
31 May -3.2 00:05:58 10° NW 00:09:01 55° N 00:09:01 55° N visible
31 May -2.5 23:13:45 10° NW 23:16:50 37° NNE 23:18:26 22° ENE visible
01 Jun -1.3 00:50:15 10° WNW 00:51:03 16° WNW 00:51:03 16° WNW visible
01 Jun -2.0 22:21:30 10° NW 22:24:24 28° NNE 22:27:17 10° ENE visible
01 Jun -3.3 23:57:51 10° WNW 00:00:29 53° W 00:00:29 53° W visible
02 Jun -3.6 23:05:32 10° NW 23:08:48 67° NNE 23:09:57 36° E visible
03 Jun -2.8 22:13:16 10° NW 22:16:24 42° NNE 22:19:25 11° E visible
03 Jun -2.4 23:49:53 10° WNW 23:52:04 27° WSW 23:52:04 27° WSW visible
04 Jun -3.7 22:57:22 10° WNW 23:00:35 57° SW 23:01:34 38° SSE visible
